CW3742 Weather Reports


time (UTC)temp
C
wind
direction
speed
KPH
gust
KPH
rain 1hr
cm
rain 24hr
cm
rain mn
cm
humidity
%
barometer
mb
20260506130017 6 0 12.9 20.9 0.00 0.00 0.00 67 997.2
20260506123037 6 0 11.3 19.3 0.00 0.00 0.00 70 996.8
20260506120018 5 0 11.3 16.1 0.00 0.00 0.00 75 996.0
20260506113017 5 0 11.3 14.5 0.00 0.00 0.00 76 995.2
20260506110058 4 0 9.7 12.9 0.00 0.03 0.00 76 994.6
20260506103017 5 0 8.0 12.9 0.00 0.03 0.00 74 994.6
20260506100038 5 0 9.7 14.5 0.00 0.03 0.00 74 994.2
20260506093038 5 0 8.0 11.3 0.00 0.03 0.00 72 994.4
20260506090017 6 0 6.4 11.3 0.00 0.03 0.00 68 994.1
20260506083017 7 0 6.4 11.3 0.00 0.03 0.00 66 993.7
20260506073017 7 0 4.8 9.7 0.00 0.03 0.00 65 993.6
20260506043018 9 0 9.7 29.0 0.00 0.03 0.00 66 992.0
20260506040017 10 0 6.4 16.1 0.00 0.03 0.00 66 992.0
20260506033017 10 0 12.9 17.7 0.00 0.03 0.00 65 992.0
20260506030017 10 0 12.9 16.1 0.00 0.03 0.00 65 992.0
20260506023017 10 0 9.7 14.5 0.00 0.03 0.00 63 991.7
20260506020038 10 0 9.7 12.9 0.00 0.03 0.00 61 991.3
20260506013038 11 0 9.7 12.9 0.00 0.03 0.00 59 990.7
20260506010022 12 0 8.0 12.9 0.00 0.03 0.00 57 990.6
20260506003017 12 0 6.4 12.9 0.00 0.03 0.00 51 990.6
20260506000017 12 0 8.0 16.1 0.00 0.28 0.00 49 990.5
20260505233038 12 0 8.0 20.9 0.00 0.28 0.00 49 990.8
20260505230018 12 0 9.7 22.5 0.00 0.28 0.00 48 990.5
20260505223018 12 0 16.1 27.4 0.00 0.28 0.00 49 990.6
20260505220038 12 0 14.5 29.0 0.00 0.28 0.00 48 991.0
20260505213018 12 0 17.7 33.8 0.00 0.28 0.00 49 991.1
20260505210022 13 0 17.7 32.2 0.00 0.28 0.00 48 991.3
20260505193018 12 0 11.3 25.7 0.00 0.28 0.03 47 1010.0
20260505190016 12 0 8.0 22.5 0.00 0.28 0.03 51 1010.2
20260505183016 11 0 11.3 24.1 0.00 0.28 0.03 55 1010.2
20260505180016 11 0 9.7 20.9 0.00 0.28 0.03 56 1010.3
20260505173016 11 0 6.4 16.1 0.00 0.28 0.03 57 1010.6
20260505170037 11 0 8.0 19.3 0.00 0.28 0.03 61 1010.3
20260505163016 10 0 9.7 20.9 0.00 0.28 0.03 59 1010.3
20260505153016 10 0 6.4 16.1 0.00 0.28 0.03 57 1009.8